RH
6 5 5 5 5 5 5 5 7 6 6 6 25 21 35 19 62 47 8 11 17 28 37 66 68 100 100 74 79 100 100 93 87 100 100 96 91 98 98 100 100 100 100 99
13 11 10 13 32 55 32 19 11 9 7 6 5 5 8 11 11 22 7 7 14 40 38 58 65 99 96 100 99 100 91 87 99 100 91 78 80 100 99 84 95 100 100 100
21 22 21 24 100 96 48 39 71 12 10 8 6 6 10 16 9 9 8 6 9 25 50 85 77 98 100 100 100 100 100 100 100 100 99 83 74 90 98 100 94 89 100 100
9 14 24 97 100 70 61 76 90 62 12 8 8 8 12 14 11 10 15 11 16 31 70 85 89 100 94 99 100 100 100 99 100 100 83 84 88 81 79 78 87 87 99 100
12 19 100 100 100 100 87 63 100 94 24 15 12 19 18 15 18 15 14 15 43 52 67 92 100 100 95 95 95 100 92 97 100 96 92 100 97 98 100 93 88 93 100 100
16 64 100 100 100 96 73 51 92 100 62 60 24 19 16 16 23 19 20 36 56 68 91 100 98 100 94 77 95 100 100 100 99 100 100 100 100 94 90 98 81 54 44 51
26 94 100 100 98 100 100 89 46 77 63 94 28 40 45 64 68 80 72 75 86 78 82 100 100 100 92 97 98 100 100 100 100 100 100 99 76 66 36 8 7 6 7 8
98 100 100 100 85 84 82 67 44 50 91 91 90 61 73 100 100 100 99 90 100 94 100 100 100 100 95 100 100 100 100 100 100 97 70 43 21 6 6 8 13 15 16 17
100 100 100 99 80 71 58 35 51 98 100 100 100 100 100 100 100 100 83 100 100 100 100 100 100 100 100 100 100 100 100 100 78 25 8 7 5 7 11 16 16 26 24 34
98 99 78 99 97 47 81 100 100 100 100 99 100 100 100 100 100 100 100 100 100 100 100 100 100 100 100 99 100 99 86 32 7 6 6 6 13 19 20 18 25 41 58 57
99 100 100 94 45 54 100 100 100 100 100 97 100 100 100 100 100 100 100 100 100 100 100 100 100 100 100 100 91 38 12 7 6 6 6 10 16 27 22 24 41 59 58 56
91 91 66 40 70 100 100 100 100 100 99 100 100 100 100 100 100 96 99 99 100 100 100 100 100 98 74 55 16 9 7 6 32 10 38 34 28 30 36 36 57 90 92 88
73 94 82 51 91 100 100 100 100 100 100 100 100 100 100 100 100 100 100 100 100 100 99 96 79 72 22 11 10 8 6 6 11 21 26 22 28 39 50 44 88 88 81 93
76 47 47 92 100 100 99 99 100 100 100 100 100 100 100 100 100 100 99 75 73 85 78 59 26 16 18 21 24 7 6 7 14 23 31 32 34 50 66 82 79 80 84 100
40 46 63 100 100 99 100 100 100 100 100 100 100 100 100 100 100 98 98 94 75 72 43 15 14 13 13 17 11 8 7 8 15 40 38 40 42 51 79 94 100 99 97 100
62 91 100 100 100 100 100 100 100 100 98 100 100 100 100 100 96 63 79 62 54 28 14 14 16 16 14 12 10 9 7 8 10 38 45 48 60 58 91 92 100 100 100 69
91 99 97 100 100 100 100 100 100 100 98 100 100 99 98 98 66 80 77 36 23 18 15 16 17 17 14 12 11 10 9 8 9 12 41 48 75 81 100 100 100 100 94 65
93 100 100 100 100 99 98 100 100 100 100 100 96 100 94 91 83 63 54 38 25 18 17 18 19 19 17 15 14 11 10 9 10 14 28 48 63 79 95 100 99 100 90 68
100 100 100 99 100 100 100 100 100 100 100 100 99 91 70 90 54 42 32 19 18 20 21 20 18 16 14 13 13 11 11 10 10 14 38 58 56 80 90 100 100 100 93 75
100 100 97 100 100 100 100 100 100 99 100 100 99 98 88 76 46 22 19 21 22 22 18 14 13 13 13 12 15 13 14 14 14 17 41 68 75 87 93 100 100 99 91 69
100 98 100 100 100 100 100 97 98 100 100 91 87 77 46 50 28 22 23 22 16 14 37 39 43 36 36 35 36 37 32 23 23 24 44 71 81 100 100 100 98 90 84 57
100 100 100 100 100 100 97 97 100 96 100 98 93 83 73 29 24 24 19 14 14 26 66 64 42 88 85 63 44 43 52 49 44 44 82 75 75 99 100 99 73 55 52 50
100 100 100 100 96 94 97 94 94 98 100 100 100 73 25 26 22 15 14 15 38 36 46 86 62 52 54 69 62 61 62 72 47 94 100 80 66 88 96 91 99 89 49 32
98 100 97 95 95 93 95 92 100 100 98 95 49 24 26 19 14 14 16 24 32 52 82 100 61 74 64 74 80 83 71 52 54 100 100 95 60 38 54 28 29 39 31 31
100 100 100 100 100 100 100 99 91 95 95 40 27 26 16 14 14 16 19 36 51 79 99 56 58 79 94 100 96 81 70 74 99 100 100 84 38 26 22 23 25 30 32 38
100 100 99 100 100 100 98 96 98 84 31 29 22 15 14 14 14 18 30 51 80 86 39 45 63 65 76 84 95 100 100 94 84 78 84 84 68 39 28 25 26 27 27 32
99 100 99 100 99 100 100 99 56 31 30 19 14 14 14 16 17 26 44 68 96 52 47 46 71 98 100 100 100 100 100 93 75 74 81 68 56 44 34 27 23 21 21 39
Wind_Speed
75 74 73 73 75 76 73 69 65 61 57 55 52 53 50 49 42 46 41 44 45 43 41 39 39 36 31 35 37 28 28 28 26 23 27 29 26 25 20 24 22 17 26 27
66 68 68 62 58 57 63 59 59 57 57 55 53 48 48 46 44 47 42 44 43 40 39 41 37 39 41 40 39 34 32 27 23 25 30 18 16 17 23 25 29 23 25 23
57 56 55 47 46 42 42 41 45 51 52 50 48 46 45 45 42 43 43 42 40 39 38 37 35 39 40 40 41 34 28 27 23 23 26 25 17 19 28 31 32 33 34 33
49 47 38 48 46 40 38 40 38 38 44 44 41 43 42 43 42 41 39 39 37 37 36 36 35 37 39 35 33 31 29 26 26 25 30 30 26 28 29 30 33 34 38 45
36 38 52 40 41 35 39 38 37 37 39 40 40 41 39 39 38 37 35 36 35 35 35 36 34 34 34 33 32 29 25 24 28 26 25 34 38 38 35 35 33 34 36 36
36 52 41 37 34 41 34 37 40 32 39 38 40 37 37 36 35 36 35 35 35 34 34 36 33 33 31 29 25 25 25 25 25 27 30 35 40 37 31 22 22 27 26 33
43 54 38 32 32 30 32 36 41 41 36 33 36 37 35 33 31 30 33 33 34 34 34 31 26 24 23 23 24 22 24 28 29 32 27 24 29 20 20 23 26 28 29 34
51 39 37 31 27 29 28 29 33 34 27 27 29 32 30 27 28 30 35 33 33 35 31 26 25 23 21 22 23 22 21 23 22 20 17 24 22 15 20 23 22 24 27 31
44 40 39 29 23 28 28 28 27 27 24 24 26 28 29 30 30 35 36 32 34 30 25 24 24 24 24 24 24 24 22 19 18 17 17 20 17 18 15 20 21 20 24 19
38 35 34 29 24 24 26 31 30 29 24 28 26 28 29 27 32 38 35 31 32 26 24 24 24 31 30 27 22 19 17 17 16 16 19 19 15 12 16 20 17 11 15 18
34 34 27 22 23 29 30 32 29 30 27 26 27 26 26 32 33 33 37 29 27 28 27 23 23 22 28 24 19 16 16 15 17 17 16 13 12 13 16 13 12 15 15 18
29 26 22 24 29 27 26 30 32 38 36 26 33 35 30 32 31 26 23 27 24 23 25 26 27 22 17 17 17 16 15 15 12 14 8 9 10 11 9 7 10 6 11 6
22 20 20 28 30 25 27 26 35 38 31 25 33 34 34 31 24 24 24 24 20 21 20 17 16 17 17 17 16 16 14 13 13 11 9 10 10 9 6 8 5 5 8 3
23 24 28 33 26 32 31 26 33 31 28 28 30 29 28 26 25 23 22 21 20 20 19 19 19 19 16 16 16 15 12 11 11 12 11 10 10 9 7 8 9 5 4 5
27 27 30 28 32 34 28 23 27 25 22 23 25 26 27 23 25 22 21 22 19 20 19 20 20 17 17 15 13 12 10 11 13 14 13 10 9 10 9 13 11 10 7 9
28 30 29 30 34 33 30 28 27 25 28 25 29 27 27 24 21 19 18 18 19 19 19 18 16 17 15 15 15 13 13 12 13 16 15 11 10 10 10 8 4 5 6 14
28 25 30 36 35 35 30 29 25 25 27 25 27 25 23 20 19 19 17 17 17 17 18 17 17 16 16 17 16 15 16 15 15 16 19 16 10 12 12 9 8 8 13 11
25 26 29 37 37 36 31 28 28 29 28 29 28 24 22 20 17 16 16 16 16 16 16 17 16 16 17 18 18 18 19 19 19 19 19 20 15 15 15 13 11 12 13 13
30 35 36 34 35 31 27 28 30 31 26 26 24 22 18 17 15 15 15 14 14 14 15 15 17 18 21 19 23 23 24 23 23 21 21 20 19 15 17 14 13 13 13 13
40 37 35 34 31 30 31 32 28 28 26 24 23 19 17 16 14 13 13 12 12 13 15 17 20 24 27 28 29 31 30 29 28 25 24 21 21 17 16 17 16 15 15 14
38 37 32 32 32 35 33 29 26 24 24 23 20 18 16 14 13 12 11 11 11 13 16 18 21 25 25 28 25 30 34 33 31 26 24 22 20 20 22 21 17 17 17 15
31 31 31 32 35 33 30 27 25 21 21 20 20 17 14 12 11 10 10 11 12 12 13 15 16 17 20 24 23 23 26 30 28 27 26 22 19 19 22 21 18 15 15 15
31 35 34 33 32 30 27 22 19 19 16 15 15 13 13 11 9 8 10 11 9 9 4 6 11 13 12 10 8 16 20 23 25 28 26 21 19 16 13 14 16 15 15 14
29 32 31 32 27 21 18 15 13 15 15 15 14 12 10 8 9 9 10 6 2 3 2 7 9 8 4 1 6 14 18 19 24 26 25 20 18 18 17 17 16 14 15 15
22 23 23 22 18 19 19 19 18 17 16 15 13 11 9 9 9 10 6 7 6 5 3 4 4 4 3 4 10 16 17 20 23 21 20 17 16 18 17 16 17 16 15 13
22 21 21 21 20 18 17 19 18 16 15 14 12 10 9 9 10 7 11 11 9 6 2 1 2 1 3 6 7 11 16 20 20 17 16 17 14 15 14 14 15 13 13 15
23 22 21 18 16 16 16 18 18 17 14 13 11 8 8 9 8 11 13 11 9 6 3 2 3 3 4 2 3 4 9 11 14 16 16 15 16 18 17 17 16 15 17 18
Wind_Direction
258 257 257 257 256 255 254 253 251 249 248 247 245 247 249 249 245 248 256 257 259 259 257 256 254 250 244 260 256 262 265 262 255 252 262 264 270 260 226 235 240 240 245 245
254 252 250 248 250 252 252 251 248 245 243 242 242 243 242 242 240 246 250 252 254 254 256 257 259 251 251 251 257 257 252 260 257 245 249 252 243 245 232 246 238 261 241 232
250 246 245 238 232 245 245 235 238 236 236 239 241 238 236 237 239 244 248 251 253 251 254 254 262 250 248 250 249 251 248 248 249 228 242 251 238 235 236 253 254 260 256 250
241 233 217 204 224 222 225 222 229 235 232 234 234 233 232 235 238 241 246 249 250 251 251 251 257 249 251 252 252 245 245 241 239 236 241 247 251 258 254 251 258 254 248 250
225 206 197 206 216 221 218 207 222 234 228 221 221 224 227 231 235 240 244 247 248 250 251 250 253 252 251 253 248 239 233 238 232 239 249 247 254 264 267 262 255 251 250 246
205 187 187 192 203 213 211 210 207 229 222 220 219 221 225 229 232 237 241 243 243 247 251 251 250 249 250 248 233 230 231 242 263 248 247 247 251 257 262 261 260 258 260 258
190 182 180 188 202 209 220 219 216 215 220 224 214 219 221 224 229 236 240 239 241 244 248 247 244 238 236 224 227 229 239 242 249 242 246 241 255 255 254 260 266 272 272 273
182 174 182 187 205 213 220 217 212 218 225 226 223 218 219 219 222 227 239 239 239 239 237 231 227 225 223 223 229 233 234 234 236 243 232 251 259 262 270 269 269 273 274 275
179 184 185 197 201 208 200 200 201 211 218 219 218 209 214 211 210 217 235 235 233 231 227 214 215 222 225 227 235 233 229 232 230 232 248 258 274 272 266 270 287 280 282 287
166 174 186 203 204 186 182 192 204 202 198 217 212 201 200 199 202 219 229 225 218 216 211 216 224 226 228 236 223 220 208 217 232 243 251 261 266 268 277 287 292 287 288 285
176 180 196 202 192 182 190 196 195 177 185 211 187 197 177 199 210 223 225 219 218 218 218 216 213 214 221 218 206 206 216 225 234 243 249 252 264 276 285 280 297 297 290 275
170 174 185 187 182 187 192 189 186 184 198 199 191 197 199 205 210 216 217 212 214 210 206 205 197 196 193 195 209 216 222 227 233 230 239 253 266 286 274 278 299 302 336 293
176 186 189 182 183 191 187 186 184 192 202 201 192 194 197 206 213 209 199 200 184 186 184 187 189 195 203 206 210 211 219 225 227 230 247 245 269 280 265 300 257 301 334 28
187 187 184 177 187 184 183 184 183 191 202 201 199 199 198 207 202 191 177 183 187 188 184 189 196 201 198 209 211 212 217 224 224 226 234 245 265 280 247 242 251 281 331 220
181 182 178 183 184 181 180 172 176 185 193 193 192 194 198 188 178 176 185 181 185 187 192 195 202 199 207 217 218 219 222 228 227 224 230 248 254 260 242 223 220 257 260 181
176 176 181 182 178 176 176 186 188 186 194 189 190 186 178 170 173 180 184 185 189 194 195 200 202 210 214 217 222 228 228 231 234 229 229 242 251 252 216 207 221 223 197 158
174 176 178 178 174 182 184 191 194 195 192 182 176 171 174 175 179 181 183 191 195 200 205 209 214 219 222 228 231 233 231 234 239 240 232 232 240 223 212 207 204 199 174 184
171 174 175 180 179 181 188 191 190 186 177 178 171 172 173 177 182 188 191 197 202 208 214 223 230 234 240 243 242 239 236 236 240 243 237 232 234 225 229 228 218 198 181 180
163 154 165 167 174 179 186 183 179 173 172 171 174 172 175 179 186 195 199 204 211 221 232 242 250 252 255 253 248 242 239 237 238 240 235 232 227 228 226 223 210 192 186 182
164 164 165 173 176 180 182 180 172 173 170 169 178 177 181 188 194 201 207 215 229 243 254 260 265 266 265 262 256 250 243 236 234 233 223 221 219 221 223 222 201 196 192 190
164 167 167 171 176 181 180 171 168 171 174 179 179 182 185 195 202 208 220 235 252 267 277 278 282 290 289 280 268 252 238 230 226 223 215 217 215 211 211 194 191 198 196 194
163 170 173 176 178 174 174 177 180 181 180 184 187 190 193 201 205 220 240 258 277 295 287 295 301 295 289 286 277 247 231 218 211 202 201 206 204 207 197 193 191 195 203 203
167 174 176 174 179 178 179 179 183 182 185 189 188 192 196 205 218 242 264 281 293 296 300 305 326 321 310 309 257 214 196 194 193 189 192 195 195 192 184 192 198 192 202 210
169 175 179 180 182 185 184 176 183 196 194 186 190 197 205 217 239 258 274 276 228 195 271 316 321 332 336 252 147 152 161 171 180 184 191 187 194 192 193 192 191 198 206 207
171 176 178 178 178 182 187 191 192 190 186 190 195 201 211 232 250 276 260 183 185 188 190 267 332 16 51 134 145 148 154 164 173 184 179 178 188 189 191 193 198 203 214 224
169 169 171 171 177 178 185 188 184 186 188 194 196 209 227 252 274 233 186 184 192 183 187 346 8 40 107 118 140 165 172 174 175 183 190 202 207 199 200 202 207 219 233 245
177 173 175 175 178 179 177 180 184 187 191 195 204 224 255 270 225 188 185 197 194 201 241 327 35 125 132 162 203 192 182 185 193 197 197 204 217 223 224 221 224 235 247 247